Regional Weather Roundup
Issued by NWS

Home | Current Version | Previous Version | Graphics & Text | Print | Product List | Glossary On
Versions: 1 2 3 4 5 6 7 8 9 10 11 12 13 14 15 16 17 18 19 20 21 22 23 24 25 26 27 28 29 30 31 32 33 34 35 36 37 38 39 40 41 42 43 44 45 46 47 48 49 50
000
ASUS43 KDTX 262210
RWRMI
MICHIGAN HOURLY REGIONAL WEATHER ROUNDUP
NATIONAL WEATHER SERVICE DETROIT/PONTIAC MI
ISSUED BY NATIONAL WEATHER SERVICE GRAND RAPIDS MI
500 PM EST SUN FEB 26 2017

NOTE: "FAIR" INDICATES FEW OR NO CLOUDS BELOW 12,000 FEET WITH NO
SIGNIFICANT WEATHER AND/OR OBSTRUCTION TO VISIBILITY.

MIZ047>049-052>055-059>063-066>070-074>076-081>083-262300-
SOUTHEAST LOWER MICHIGAN

CITY           SKY/WX    TMP DP  RH WIND       PRES   REMARKS
ADRIAN         SUNNY     41  22  46 SW18G31   30.01R
ALMA           CLOUDY    40  20  44 SW13G22   29.89S WCI  32
ANN ARBOR      MOSUNNY   41  20  43 S22G29    29.98R
BAD AXE        CLOUDY    37  21  52 SW16G26   29.89R WCI  27
DETROIT CITY   CLOUDY    40  21  46 SW13      29.99S WCI  32
DETROIT        PTSUNNY   42  19  39 SW26G36   30.00F
FLINT          PTSUNNY   41  20  43 SW18G24   29.93R
GROSSE ILE     MOSUNNY   41  24  52 SW15      30.00S
HILLSDALE      MOSUNNY   39  21  48 SW18G25   29.98R WCI  30
HOWELL         MOSUNNY   41  16  36 SW21G28   29.93S

CITY           SKY/WX    TMP DP  RH WIND       PRES   REMARKS
JACKSON        SUNNY     42  19  39 SW23G33   29.96R
LANSING        MOSUNNY   42  20  41 SW21G31   29.92S
MASON          MOSUNNY   42  23  47 SW14G24   29.94R
MONROE         SUNNY     43  22  43 SW18G29   30.00S
MT. CLEMENS    PTSUNNY   39  22  48 S16       29.95F WCI  31
PONTIAC        MOSUNNY   39  18  42 S16G24    29.93F WCI  30
PORT HOPE        N/A     37  22  54 SW8G17    29.87R WCI  31
PORT HURON     MOSUNNY   37  23  56 S20G26    29.95F WCI  27
TRI CITIES     CLOUDY    39  23  52 SW20      29.89S WCI  29
YPSILANTI      MOSUNNY   42  21  43 SW26      29.99S
$$
MIZ043>046-050>051-056>058-064>065-071>073-077>080-262300-
SOUTHWEST LOWER MICHIGAN

CITY           SKY/WX    TMP DP  RH WIND       PRES   REMARKS
BATTLE CREEK   SUNNY     42  21  43 SW22      29.94S
BENTON HARBOR  SUNNY     46  20  35 SW23      29.95S
BIG RAPIDS     PTSUNNY   37  24  59 SW21G29   29.84S WCI  26
COLDWATER      SUNNY     42  19  40 SW17G30   29.98R
HOLLAND        SUNNY     43  26  51 SW18G29   29.92S
GRAND RAPIDS   MOSUNNY   42  20  41 SW29G39   29.91R
KALAMAZOO      MOSUNNY   45  19  35 SW17G31   29.95S
MARSHALL       SUNNY     42  21  43 SW20G29   29.95S
MOUNT PLEASANT CLOUDY    40  21  47 SW20G28   29.86F WCI  30
MUSKEGON       MOSUNNY   42  29  59 SW17      29.90R
STURGIS        MOSUNNY   43  23  45 SW18G29   29.98R
$$
MIZ016>042-262300-
NORTHERN LOWER MICHIGAN

CITY           SKY/WX    TMP DP  RH WIND       PRES   REMARKS
ALPENA         CLOUDY    34  27  75 SW9G20    29.79F WCI  27
BEAVER ISLAND  PTSUNNY   34  27  76 SW23G29   29.72R WCI  22
BELLAIRE       CLOUDY    35  26  71 SW10G18   29.79S WCI  27
CADILLAC       PTSUNNY   33  25  71 SW13      29.79S WCI  24
CHARLEVOIX     CLOUDY    35  27  74 SW13      29.77S WCI  26
GAYLORD        MIX PCPN  33  23  66 SW20G26   29.75S WCI  21
HOUGHTON LAKE  PTSUNNY   33  24  69 SW17G30   29.82S WCI  22
MANISTEE       SUNNY     38  26  62 SW16G24   29.82R WCI  29
OSCODA         CLOUDY    37  22  55 SW16      29.84R WCI  27
PELLSTON       CLOUDY    34  24  67 SW14G22   29.73F WCI  25
TRAVERSE CITY  PTSUNNY   37  24  59 SW12G22   29.78R WCI  29
LUDINGTON      SUNNY     37  31  78 SW13G21   29.84S WCI  29
$$
MIZ007>008-015-262300-
EASTERN UPPER MICHIGAN

CITY           SKY/WX    TMP DP  RH WIND       PRES   REMARKS
KINROSS        LGT SNOW  30  28  93 SW13G20   29.70R FOG     WCI  20
MACKINAC ISLAN CLOUDY    32  26  79 SW14G28   29.71S WCI  22
NEWBERRY       PTSUNNY   30  23  77 SW18      29.67S WCI  18
S. S. MARIE    LGT SNOW  32  28  85 SW14G21   29.68S VSB 3/4 WCI  22
$$
MIZ004>006-011>014-085-262300-
CENTRAL UPPER MICHIGAN

CITY           SKY/WX    TMP DP  RH WIND       PRES   REMARKS
MANISTIQUE     CLOUDY    33  25  73 SW10G18   29.70S WCI  25
ESCANABA       PTSUNNY   37  22  54 SW14G20   29.70R WCI  28
MENOMINEE      PTSUNNY   38  22  52 W10G18    29.75R WCI  31
SAWYER-GWINN   MOSUNNY   32  19  59 W16G26    29.65R WCI  21
$$
MIZ001>003-009>011-084-262300-
WESTERN UPPER MICHIGAN

CITY           SKY/WX    TMP DP  RH WIND       PRES   REMARKS
IRON MOUNTAIN  LGT SNOW  31  22  69 NW22G32   29.70R VSB 3/4 WCI  18
HOUGHTON       LGT SNOW  24  17  74 W24       29.68R WCI   8
COPPER HARBOR    N/A     26  22  84 N14G21    29.68R WCI  14
IRONWOOD       MOSUNNY   24  13  62 NW17G25   29.77R WCI  11
$$

ABBREVIATIONS USED IN REMARKS
   TC - TEMPERATURE IN CELSIUS
  WCI - WIND CHILL INDEX
   HX - HEAT INDEX
  VSB - VISIBILITY




USA.gov is the U.S. government's official web portal to all federal, state and local government web resources and services.